Regional Weather Roundup
Issued by NWS Charleston, WV

Home | Current Version | Previous Version | Graphics & Text | Print | Product List | Glossary On
Versions: 1 2 3 4 5 6 7 8 9 10 11 12 13 14 15 16 17 18 19 20 21 22 23 24 25 26 27 28 29 30 31 32 33 34 35 36 37 38 39 40 41 42 43 44 45 46 47 48 49 50
000
ASUS41 KRLX 031910
RWRRLX
West Virginia Regional Weather Roundup
National Weather Service Charleston WV
300 PM EDT FRI JUL 03 2015

Note: "fair" indicates few or no clouds below 12,000 feet with no
significant weather and/or obstructions to visibility.

WVZ003-032000-
Northern Panhandle of West Virginia

CITY           SKY/WX    TMP DP  RH WIND       PRES   REMARKS
WHEELING       LGT RAIN  75  59  57 E8        29.93F
$$

WVZ009-032000-
Northwest West Virginia

CITY           SKY/WX    TMP DP  RH WIND       PRES   REMARKS
PARKERSBURG    PTSUNNY   76  63  64 E7        29.93S
$$

WVZ006-032000-
Western West Virginia

CITY           SKY/WX    TMP DP  RH WIND       PRES   REMARKS
HUNTINGTON     CLOUDY    73  70  88 SW5       29.86F
$$

WVZ015-032000-
West Central West Virginia

CITY           SKY/WX    TMP DP  RH WIND       PRES   REMARKS
CHARLESTON     TSTM      73  70  90 N3        29.87F
$$

WVZ022-031-032000-
North Central West Virginia

CITY           SKY/WX    TMP DP  RH WIND       PRES   REMARKS
CLARKSBURG     HVY RAIN  69  67  93 SE5       29.93R FOG
MORGANTOWN     CLOUDY    78  59  51 SE7       29.93F
$$

WVZ025-035-042-045-032000-
Southern West Virginia

CITY           SKY/WX    TMP DP  RH WIND       PRES   REMARKS
BECKLEY        LGT RAIN  70  66  87 S9        29.97F
LOGAN            N/A     72  68  88 CALM      29.87F
BLUEFIELD      LGT RAIN  70  64  81 S5        30.01S
LEWISBURG      CLOUDY    68  63  84 SE6       29.99F HAZE
$$

WVZ047-032000-
Northern Mountains of West Virginia

CITY           SKY/WX    TMP DP  RH WIND       PRES   REMARKS
ELKINS         CLOUDY    70  63  78 S3        29.97F
$$

WVZ052-032000-
Eastern Panhandle of West Virginia

CITY           SKY/WX    TMP DP  RH WIND       PRES   REMARKS
MARTINSBURG    CLOUDY    76  63  64 S10       29.97F
PETERSBURG     RAIN      70  61  74 S8        29.99R
$$


USA.gov is the U.S. government's official web portal to all federal, state and local government web resources and services.